Wind_Speed
73 79 84 86 91 93 96 99 101 104 106 108 109 111 112 112 112 111 111 109 110 111 110 108 107 107 106
85 89 92 96 100 104 109 112 113 115 118 120 121 121 122 122 122 122 119 116 115 113 116 117 117 115 112
95 100 104 109 111 113 116 120 122 123 124 125 123 121 119 121 121 120 118 118 115 113 112 114 117 116 114
108 112 115 118 122 123 124 125 125 127 125 124 124 122 117 115 113 113 113 110 107 104 103 106 107 106 108
119 123 126 129 133 132 130 128 123 122 119 118 118 112 109 108 107 105 105 105 103 101 99 99 100 100 102
129 131 135 137 137 134 129 121 111 112 107 102 104 103 107 108 109 107 104 104 103 102 101 100 98 98 97
139 141 141 137 132 122 112 103 98 100 107 100 104 100 104 102 106 109 109 106 104 101 100 99 99 99 97
147 140 133 125 118 108 102 97 93 95 101 91 96 93 94 95 99 102 104 104 100 98 96 94 96 99 100
135 129 124 119 115 106 98 91 87 88 92 80 83 82 83 84 87 90 93 94 91 89 89 87 89 93 95
123 120 116 110 105 100 93 86 81 79 81 71 73 71 68 75 76 79 79 81 79 75 77 79 82 84 86
112 107 102 100 97 93 86 79 74 73 69 63 66 64 61 62 70 68 66 68 65 66 67 70 72 74 76
101 98 94 91 87 82 77 71 65 63 63 57 57 57 57 57 60 61 59 57 57 58 58 60 62 66 67
96 92 85 79 74 69 65 61 60 57 56 55 53 53 51 52 54 53 53 48 50 51 52 53 54 57 60
85 78 72 67 63 60 60 57 54 52 48 46 46 44 45 45 46 45 43 42 42 43 46 47 49 51 53
71 66 62 60 58 56 53 51 48 47 44 41 40 39 38 38 37 37 36 35 35 37 40 42 44 46 47
62 58 57 56 53 49 47 45 43 41 39 39 37 35 34 34 32 30 29 30 30 31 33 35 37 39 41
55 54 52 48 46 45 43 41 40 39 38 37 36 34 33 31 28 25 24 24 24 24 25 27 29 32 35
Wind_Direction
294 296 295 293 293 292 291 289 287 286 285 284 282 281 280 278 277 276 274 272 270 269 267 266 266 266 267
297 296 294 293 294 293 292 291 290 287 286 285 284 283 281 280 280 279 277 274 273 271 268 267 266 266 265
298 297 295 293 291 291 291 290 289 290 289 286 285 284 282 279 278 276 275 273 273 272 270 268 268 267 266
297 295 293 293 295 293 292 292 291 290 289 288 287 285 282 279 276 275 274 273 272 270 268 267 264 265 266
296 297 298 296 296 297 296 294 293 291 289 288 286 285 283 280 277 275 273 272 270 268 267 265 263 262 262
297 298 296 297 298 297 296 295 295 294 289 285 284 282 281 280 278 275 272 270 269 267 266 264 262 260 259
300 298 300 299 299 298 297 295 293 291 286 283 282 280 278 276 275 274 273 270 267 266 264 262 261 260 258
302 304 303 302 300 298 296 294 293 290 286 285 283 280 278 276 274 272 271 270 268 267 264 262 260 258 257
303 303 303 302 300 299 299 298 295 292 287 286 283 281 280 277 274 271 271 270 269 267 265 263 259 257 254
304 304 303 303 302 302 301 301 299 295 291 292 287 284 281 278 275 273 272 272 272 269 265 261 258 256 254
305 305 304 304 304 304 303 302 300 296 293 292 289 286 282 278 278 275 274 272 271 267 262 259 257 255 252
307 306 306 306 304 304 304 303 300 297 297 295 291 288 287 283 279 281 276 272 267 265 262 259 255 252 249
308 307 307 306 305 305 304 304 302 302 300 299 296 293 291 287 284 280 279 275 267 263 260 257 254 251 247
307 307 307 307 307 308 307 306 305 305 304 301 299 298 294 291 287 284 280 275 267 262 257 254 252 249 245
309 310 310 310 310 310 309 310 310 310 310 308 306 304 302 297 292 288 281 275 270 263 257 253 250 247 242
312 313 313 313 313 313 312 312 312 313 314 315 313 311 309 304 299 293 286 280 272 263 256 253 251 246 241
315 315 315 314 314 315 316 317 317 318 318 318 319 318 314 310 305 297 286 280 275 270 263 257 244 237 235
Height
10509 10498 10486 10476 10466 10460 10453 10447 10441 10434 10429 10423 10416 10411 10407 10405 10403 10402 10400 10399 10399 10398 10397 10398 10401 10403 10406
10482 10472 10464 10453 10443 10433 10419 10411 10406 10399 10391 10385 10379 10371 10364 10360 10358 10355 10355 10355 10356 10357 10359 10363 10363 10367 10371
10454 10442 10432 10420 10414 10404 10394 10382 10368 10358 10349 10338 10332 10327 10323 10318 10313 10310 10310 10311 10313 10314 10317 10321 10323 10327 10334
10416 10408 10397 10385 10375 10366 10358 10344 10335 10320 10308 10296 10285 10280 10276 10271 10270 10266 10264 10266 10269 10272 10275 10278 10283 10286 10291
10382 10370 10357 10343 10328 10318 10309 10302 10297 10284 10270 10257 10244 10235 10229 10224 10222 10221 10222 10223 10226 10229 10233 10237 10242 10247 10251
10348 10334 10317 10299 10286 10275 10266 10260 10257 10236 10221 10217 10205 10202 10192 10180 10174 10174 10178 10181 10184 10188 10192 10197 10203 10208 10215
10306 10290 10277 10257 10244 10234 10223 10218 10214 10201 10173 10175 10164 10162 10149 10148 10139 10128 10127 10133 10138 10145 10153 10160 10165 10170 10178
10258 10244 10227 10212 10196 10190 10187 10180 10174 10156 10126 10135 10125 10121 10114 10108 10099 10091 10084 10085 10095 10103 10112 10122 10128 10133 10139
10222 10203 10187 10173 10155 10147 10140 10136 10130 10115 10089 10099 10088 10083 10077 10069 10061 10055 10051 10050 10058 10068 10074 10082 10088 10092 10099
10192 10172 10153 10136 10119 10107 10101 10097 10087 10078 10058 10065 10053 10048 10049 10032 10028 10023 10025 10022 10029 10038 10043 10045 10048 10055 10064
10164 10143 10126 10109 10092 10078 10069 10065 10057 10044 10036 10037 10025 10019 10020 10013 9997 10000 10003 10000 10006 10007 10011 10014 10018 10025 10033
10128 10111 10098 10082 10068 10056 10046 10038 10032 10023 10013 10013 10006 9998 9993 9989 9982 9977 9978 9980 9983 9982 9985 9989 9993 9997 10006
10098 10084 10072 10060 10049 10038 10027 10019 10010 10005 9997 9990 9984 9978 9973 9967 9961 9960 9957 9960 9960 9961 9964 9966 9970 9974 9982
10075 10063 10051 10041 10031 10021 10010 10002 9995 9987 9982 9975 9967 9963 9956 9951 9945 9942 9942 9940 9941 9942 9943 9946 9949 9954 9961
10057 10046 10034 10024 10015 10007 9997 9988 9981 9973 9966 9961 9954 9947 9942 9936 9932 9928 9926 9925 9924 9926 9926 9928 9932 9935 9942
10041 10031 10020 10011 10001 9994 9985 9978 9970 9963 9956 9948 9943 9937 9931 9925 9920 9917 9913 9912 9912 9911 9912 9915 9919 9923 9927
10027 10018 10009 10000 9991 9983 9975 9967 9959 9953 9946 9940 9934 9928 9923 9917 9912 9907 9904 9903 9902 9901 9902 9904 9907 9910 9914